Regional Weather Roundup
Issued by NWS

Home | Current Version | Previous Version | Graphics & Text | Print | Product List | Glossary On
Versions: 1 2 3 4 5 6 7 8 9 10 11 12 13 14 15 16 17 18 19 20 21 22 23 24 25 26 27 28 29 30 31 32 33 34 35 36 37 38 39 40 41 42 43 44 45 46 47 48 49 50
000
ASUS43 KOAX 260510
RWRNE

WEATHER ROUNDUP FOR NEBRASKA
NATIONAL WEATHER SERVICE OMAHA NE
1200 AM CDT THU MAY 26 2016

NOTES: SATELLITE DATA IS BEING USED TO AUGMENT CLOUD COVER ABOVE
       12000 FEET.
       "FAIR" INDICATES FEW OR NO CLOUDS BELOW 12,000 FEET WITH NO
       SIGNIFICANT WEATHER AND/OR OBSTRUCTIONS TO VISIBILITY.

  * THESE STATIONS DO NOT REPORT WEATHER SUCH AS RAIN...SNOW OR FOG.

NEZ001>004-019>022-054>056-260600-
NEBRASKA PANHANDLE

CITY           SKY/WX    TMP DP  RH WIND       PRES   REMARKS
SCOTTSBLUFF    CLOUDY    50  44  80 N6        29.96F
ALLIANCE       CLOUDY    49  46  90 NW3       29.97R
CHADRON        CLOUDY    49  43  80 W5        29.92S
KIMBALL        CLOUDY    51  44  77 W7        30.01R
SIDNEY         CLOUDY    48  45  89 S6        29.98F
$$

NEZ057>060-069>072-079>082-260600-
SOUTHWEST NEBRASKA

CITY           SKY/WX    TMP DP  RH WIND       PRES   REMARKS
NORTH PLATTE   CLOUDY    55  51  86 N3        29.93S
IMPERIAL       CLEAR     55  49  80 N3        29.93R
LEXINGTON      CLOUDY    64  49  58 S14       29.92F
MCCOOK         CLOUDY    58  50  75 N14       29.87F
OGALLALA       CLEAR     51  49  90 CALM      29.95R
$$

NEZ005>010-023>029-035>040-094-260600-
NORTH CENTRAL NEBRASKA

CITY           SKY/WX    TMP DP  RH WIND       PRES   REMARKS
VALENTINE      CLEAR     53  46  77 W5        29.91R
AINSWORTH      CLOUDY    54  49  85 NE6       29.92R
BROKEN BOW     CLOUDY    57  55  93 CALM      29.91S
O`NEILL        CLOUDY    61  53  74 SW6       29.88R
ORD            CLOUDY    63  51  65 CALM      29.87S
THEDFORD       CLOUDY    56  47  71 SW7       29.93S
$$

NEZ041-046>049-061>064-073>077-083>087-260600-
SOUTH CENTRAL NEBRASKA

CITY           SKY/WX    TMP DP  RH WIND       PRES   REMARKS
GRAND ISLAND   LGT RAIN  61  53  75 SE8       29.86F
AURORA         CLOUDY    62  56  81 NW23G29   29.93F
HASTINGS       PTCLDY    61  52  72 N13       29.90F
HEBRON         MOCLDY    69  62  76 NW16G29   29.91R
HOLDREGE       LGT RAIN  61  52  73 W17G24    29.99R
KEARNEY *      CLOUDY    61  52  72 NW7       29.90F
YORK           HVY RAIN  59  55  88 NW39G53   29.92R
$$

NEZ011>018-030>034-042>045-260600-
NORTHEAST NEBRASKA

CITY           SKY/WX    TMP DP  RH WIND       PRES   REMARKS
NORFOLK        TSTM      67  60  78 W6        29.84S
ALBION         CLOUDY    61  54  78 S3        29.91R
BLAIR          PTCLDY    70  66  89 S3        29.84S
FREMONT        CLOUDY    68  65  92 CALM      29.84F
TEKAMAH        CLEAR     68  64  87 S7        29.82S
WAYNE          TSTM      61  56  84 NW15G29   29.87R
$$

NEZ050>053-065>068-078-088>093-260600-
SOUTHEAST NEBRASKA

CITY           SKY/WX    TMP DP  RH WIND       PRES   REMARKS
LINCOLN        MOCLDY    73  68  84 W7        29.85S
OMAHA EPPLEY   MOCLDY    71  67  87 SE3       29.83S
BEATRICE       LGT RAIN  71  69  94 CALM      29.85S
FALLS CITY     CLOUDY    70  67  90 SE5       29.82S
NEBRASKA CITY  CLOUDY    70  70 100 CALM      29.83S
PLATTSMOUTH    CLOUDY    72  69  93 S3        29.84F
$$

NEZ044-045-051>053-067-260600-
OMAHA AREA

CITY           SKY/WX    TMP DP  RH WIND       PRES   REMARKS
OMAHA EPPLEY   MOCLDY    71  67  87 SE3       29.83S
BLAIR          PTCLDY    70  66  89 S3        29.84S
FREMONT        CLOUDY    68  65  92 CALM      29.84F
MILLARD        MOCLDY    70  67  92 CALM      29.83F
OFFUTT AFB     PTCLDY    69  69 100 SE3       29.82F
PLATTSMOUTH    CLOUDY    72  69  93 S3        29.84F
WAHOO          FAIR      68  65  91 S6        29.85R
$$



USA.gov is the U.S. government's official web portal to all federal, state and local government web resources and services.